[[{"header":{"parameterUnit":"m.s-1","parameterCategory":1,"la1":30.2991,"la2":30.254,"lo1":-89.0895,"lo2":-89.0444,"dy":0.0017,"dx":0.0017,"nx":28,"ny":28,"refTime":"2024-09-29T21:00:00:Z","depth":0,"parameterNumber":2,"parameterNumberName":"U-component_of_WINDS"},"data":[0,0,0,0,0,0,0,0,0,0,0,0,0,0,0,0,0,0,0,0,0,0,0,0,0,0,0,0,0,0,0,0,0,0,0,0,0,0,0,0,0,0,0,0,0,0,0,0,0,0,0,0,0,0,0,0,0,0,0.1805,0.1805,0,0.1794,0.1794,0.1794,0.1754,0.1753,0.1752,0.1751,0.1742,0.1742,0.1743,0,0,0,0,0,0,0,0,0,0,0,0,0,0.1793,0.1794,0.1805,0.1805,0.1805,0.1794,0.1794,0.1794,0.1754,0.1753,0.1752,0.1751,0.1741,0.1742,0.1743,0,0,0,0,0,0,0,0,0,0,0,0,0,0.1792,0.1794,0.1805,0.1784,0.1782,0.1795,0.1794,0.1794,0.1754,0.1753,0.1751,0.175,0.1741,0.1742,0.1743,0.1777,0,0,0.1746,0.1746,0,0,0,0,0,0,0,0,0.1792,0.1793,0.1787,0.1785,0.1783,0.1774,0.1787,0.1788,0.1755,0.1765,0.1751,0.1749,0.1754,0.1753,0.1755,0.1776,0.1776,0.1746,0.1746,0.1747,0.1747,0,0,0,0,0,0,0,0.1792,0.1793,0.1801,0.1787,0.1784,0.1775,0.1773,0.1787,0.1767,0.1764,0.1761,0.176,0.1752,0.1754,0.1754,0.1776,0.1746,0.1747,0.1747,0.1748,0.1826,0.1827,0,0,0,0,0,0,0.1795,0.1793,0.1801,0.1801,0.1784,0.1776,0.1775,0.1778,0.1767,0.1764,0.1761,0.1758,0.1753,0.1753,0.1754,0.1793,0.1747,0.1748,0.1748,0.1824,0.1826,0.1828,0,0,0,0,0,0,0.1795,0.1796,0.1802,0.1796,0.1796,0.1778,0.1783,0.1779,0.178,0.1765,0.1761,0.1766,0.1752,0.1752,0.1771,0.1792,0.1748,0.1749,0.1823,0.1825,0.1827,0.1873,0,0,0,0,0,0,0.1795,0.1796,0.1808,0.1797,0.1797,0.1819,0.1784,0.178,0.1782,0.1778,0.1769,0.1766,0.1751,0.177,0.1772,0.1793,0.175,0.1821,0.1824,0.1826,0.1869,0.1876,0.1882,0,0,0,0,0,0.1795,0.1822,0.1809,0.1811,0.1811,0.1821,0.1821,0.1802,0.1784,0.1796,0.1786,0.1766,0.179,0.1773,0.1775,0.1796,0.1819,0.1823,0.1826,0.1866,0.1875,0.1882,0,0,0,0,0,0,0.1837,0.182,0.1806,0.183,0.1827,0.1814,0.1829,0.1812,0.1814,0.181,0.1788,0.1786,0.1809,0.1804,0.1785,0.1828,0.1801,0.1805,0.1831,0.1839,0.1845,0.1847,0.175,0,0,0,0,0,0.1849,0.1857,0.1842,0.1865,0.1864,0.1847,0.185,0.1836,0.1833,0.1831,0.1823,0.1821,0.1828,0.1833,0.1838,0.1868,0.1866,0.1884,0.189,0.1896,0.19,0.1917,0.1925,0.1839,0.1839,0.1839,0,0,0.1874,0.1866,0.1872,0.1873,0.1869,0.188,0.1846,0.1858,0.1866,0.1833,0.1851,0.1845,0.1841,0.1866,0.1877,0.1863,0.1923,0.19,0.1904,0.1906,0.1921,0.1929,0.1937,0.1841,0.1841,0.1841,0,0,0.1925,0.1919,0.1938,0.1935,0.193,0.1918,0.1923,0.1912,0.1907,0.1924,0.1901,0.191,0.1922,0.1921,0.1922,0.1973,0.1956,0.1976,0.201,0.2027,0.2034,0.204,0.206,0.2067,0.198,0.198,0.198,0,0.1957,0.1971,0.195,0.1964,0.1966,0.1936,0.1956,0.1954,0.1951,0.1954,0.1938,0.1953,0.1948,0.1973,0.1986,0.1987,0.1993,0.1977,0.2034,0.204,0.2045,0.2065,0.2072,0.1982,0.1982,0.1982,0.1982,0,0.2012,0.2022,0.2038,0.2036,0.2039,0.2056,0.2038,0.2044,0.203,0.2021,0.204,0.2033,0.2037,0.2042,0.2028,0.2066,0.2057,0.2038,0.2011,0.2057,0.2074,0.2081,0.1986,0.1985,0.1984,0.1984,0,0,0.209,0.2076,0.2082,0.2081,0.2074,0.2081,0.2097,0.2101,0.2108,0.2107,0.2121,0.2132,0.2115,0.2116,0.2102,0.2116,0.216,0.2096,0.2095,0.2109,0.2203,0.2219,0.2227,0.2148,0.2149,0.215,0.2204,0,0.214,0.2166,0.2148,0.2177,0.2187,0.216,0.2174,0.2171,0.2163,0.2171,0.2162,0.2171,0.2146,0.2147,0.216,0.2152,0.2179,0.2148,0.2162,0.2163,0.2165,0.2236,0.2252,0.2303,0.221,0.2212,0.2212,0,0.2201,0.2203,0.2234,0.2225,0.2229,0.2242,0.2245,0.2252,0.2249,0.2242,0.2244,0.2227,0.2243,0.2215,0.2238,0.2217,0.2222,0.2219,0.222,0.2222,0.2191,0.2241,0.2319,0.2327,0.2223,0.2222,0.2221,0,0.2257,0.2267,0.2287,0.2287,0.2277,0.2287,0.2284,0.2279,0.2283,0.2286,0.2288,0.2293,0.2296,0.2301,0.2286,0.2266,0.2311,0.2281,0.2307,0.2308,0.2319,0.2319,0.24,0.232,0.232,0.2319,0.2319,0,0.2316,0.2336,0.2312,0.2325,0.2347,0.2326,0.2349,0.2343,0.2339,0.2351,0.2327,0.2339,0.2317,0.2327,0.2316,0.2338,0.2339,0.2335,0.2332,0.2338,0.2338,0.2341,0.2338,0.2321,0.2321,0.2321,0.232,0,0.2382,0.2367,0.2387,0.2376,0.2374,0.2391,0.2382,0.2394,0.2384,0.2399,0.2402,0.2387,0.2397,0.2382,0.2391,0.2383,0.2414,0.2404,0.2415,0.2413,0.244,0.2438,0.2528,0.2539,0.245,0.2451,0.2451,0,0.2422,0.2437,0.2427,0.2433,0.2431,0.2441,0.2445,0.2425,0.243,0.2429,0.2441,0.2449,0.2455,0.2473,0.2464,0.2471,0.2463,0.2493,0.2464,0.247,0.2465,0.2465,0.2468,0.25,0.2501,0.2502,0.2503,0,0.2493,0.2485,0.2491,0.2496,0.2501,0.2504,0.2504,0.2511,0.249,0.2498,0.2508,0.2513,0.2522,0.2531,0.2536,0.2533,0.2516,0.2512,0.2519,0.2526,0.2532,0.2531,0.2433,0.251,0.251,0.2509,0.2509,0.2508,0.2548,0.2561,0.2557,0.2565,0.2564,0.2565,0.2576,0.2568,0.2576,0.2582,0.2569,0.2583,0.2581,0.2586,0.2585,0.2596,0.2583,0.2592,0.2595,0.2598,0.2603,0.2529,0.2597,0.2596,0.2596,0.2596,0.2596,0,0.262,0.2616,0.2624,0.2626,0.2633,0.2615,0.2615,0.2622,0.2635,0.2634,0.264,0.2653,0.2662,0.2653,0.2661,0.2672,0.2664,0.2675,0.2674,0.2675,0.2613,0.2608,0.2681,0.2681,0.2681,0.2681,0.2681,0.2681,0.2659,0.268,0.2671,0.2692,0.2688,0.2701,0.2703,0.2705,0.2704,0.2719,0.2726,0.272,0.2717,0.2724,0.2733,0.273,0.2735,0.2749,0.2743,0.2687,0.2679,0.2671,0.2665,0.2749,0.2749,0.2804,0.2804,0.2805]},{"header":{"parameterUnit":"m.s-1","parameterCategory":1,"la1":30.2991,"la2":30.254,"lo1":-89.0895,"lo2":-89.0444,"dy":0.0017,"dx":0.0017,"nx":28,"ny":28,"refTime":"2024-09-29T21:00:00:Z","depth":0,"parameterNumber":3,"parameterNumberName":"V-component_of_WINDS"},"data":[0,0,0,0,0,0,0,0,0,0,0,0,0,0,0,0,0,0,0,0,0,0,0,0,0,0,0,0,0,0,0,0,0,0,0,0,0,0,0,0,0,0,0,0,0,0,0,0,0,0,0,0,0,0,0,0,0,0,-1.3217,-1.3217,0,-1.3267,-1.3268,-1.3269,-1.3295,-1.3295,-1.3295,-1.3296,-1.3345,-1.3347,-1.3348,0,0,0,0,0,0,0,0,0,0,0,0,0,-1.3141,-1.3142,-1.3217,-1.3217,-1.3218,-1.3267,-1.3268,-1.3269,-1.3295,-1.3295,-1.3295,-1.3296,-1.3345,-1.3346,-1.3348,0,0,0,0,0,0,0,0,0,0,0,0,0,-1.3181,-1.3142,-1.3217,-1.3237,-1.324,-1.3267,-1.3268,-1.3269,-1.3295,-1.3295,-1.3296,-1.3296,-1.3344,-1.3346,-1.3348,-1.3358,0,0,-1.3354,-1.3355,0,0,0,0,0,0,0,0,-1.3178,-1.3184,-1.3234,-1.3236,-1.3239,-1.3275,-1.326,-1.3299,-1.3295,-1.3274,-1.3296,-1.3296,-1.3322,-1.3326,-1.3335,-1.3361,-1.3363,-1.3354,-1.3355,-1.3356,-1.3357,0,0,0,0,0,0,0,-1.3176,-1.3181,-1.3237,-1.3234,-1.3237,-1.3243,-1.3249,-1.3267,-1.3297,-1.3276,-1.3278,-1.3284,-1.3323,-1.3333,-1.3336,-1.3364,-1.3354,-1.3356,-1.3357,-1.3358,-1.34,-1.34,0,0,0,0,0,0,-1.317,-1.3179,-1.3235,-1.3238,-1.3208,-1.3245,-1.3251,-1.3263,-1.3297,-1.3302,-1.3284,-1.3285,-1.333,-1.3334,-1.3338,-1.3352,-1.3356,-1.3358,-1.3359,-1.34,-1.34,-1.34,0,0,0,0,0,0,-1.3168,-1.3175,-1.3233,-1.3209,-1.3217,-1.3246,-1.3259,-1.3264,-1.3274,-1.3303,-1.3308,-1.3288,-1.333,-1.3335,-1.3353,-1.3354,-1.3359,-1.3361,-1.34,-1.34,-1.34,-1.338,0,0,0,0,0,0,-1.3166,-1.3174,-1.3179,-1.3209,-1.3218,-1.3248,-1.3259,-1.3265,-1.3278,-1.328,-1.3308,-1.3313,-1.333,-1.335,-1.3355,-1.3357,-1.3362,-1.34,-1.34,-1.34,-1.3381,-1.338,-1.3379,0,0,0,0,0,-1.3163,-1.3171,-1.3179,-1.3185,-1.3225,-1.3248,-1.3253,-1.3273,-1.3278,-1.3282,-1.33,-1.3312,-1.3353,-1.3352,-1.3358,-1.336,-1.34,-1.34,-1.34,-1.3382,-1.338,-1.3379,0,0,0,0,0,0,-1.3139,-1.3175,-1.3184,-1.3202,-1.3222,-1.3253,-1.3259,-1.3271,-1.3289,-1.329,-1.3314,-1.332,-1.3336,-1.335,-1.3347,-1.3372,-1.3378,-1.3379,-1.3362,-1.3361,-1.3359,-1.3356,-1.3364,0,0,0,0,0,-1.3135,-1.3152,-1.3182,-1.3195,-1.3205,-1.323,-1.3241,-1.3255,-1.3276,-1.3284,-1.3304,-1.3323,-1.334,-1.3351,-1.3369,-1.3383,-1.339,-1.3388,-1.3386,-1.3385,-1.3386,-1.3394,-1.3394,-1.34,-1.34,-1.34,0,0,-1.3129,-1.3151,-1.316,-1.3191,-1.3208,-1.3224,-1.3237,-1.3253,-1.3265,-1.3286,-1.3305,-1.332,-1.3343,-1.3359,-1.3367,-1.3371,-1.3386,-1.3385,-1.3384,-1.3385,-1.3394,-1.3394,-1.3393,-1.34,-1.34,-1.34,0,0,-1.3125,-1.3143,-1.3156,-1.3173,-1.3198,-1.3215,-1.3218,-1.3247,-1.3258,-1.3277,-1.3293,-1.3307,-1.3337,-1.3352,-1.3364,-1.3366,-1.3377,-1.3371,-1.3364,-1.3372,-1.3372,-1.3371,-1.3372,-1.3372,-1.3372,-1.3372,-1.3371,0,-1.3113,-1.3139,-1.3161,-1.3176,-1.3189,-1.321,-1.3223,-1.3237,-1.3267,-1.3275,-1.328,-1.3317,-1.3334,-1.3354,-1.3354,-1.3363,-1.3367,-1.3368,-1.337,-1.337,-1.337,-1.3371,-1.3371,-1.3371,-1.3371,-1.3371,-1.3371,0,-1.3123,-1.314,-1.3147,-1.3176,-1.319,-1.3203,-1.3227,-1.3238,-1.3251,-1.3267,-1.3285,-1.3307,-1.3329,-1.3335,-1.3347,-1.3356,-1.3358,-1.3366,-1.3373,-1.3368,-1.3369,-1.337,-1.3369,-1.337,-1.337,-1.337,0,0,-1.3105,-1.3146,-1.3148,-1.3161,-1.3191,-1.3205,-1.3219,-1.3241,-1.325,-1.327,-1.3282,-1.3307,-1.3314,-1.3328,-1.3342,-1.3349,-1.3348,-1.3356,-1.3357,-1.3353,-1.336,-1.3354,-1.3354,-1.3356,-1.3356,-1.3356,-1.3358,0,-1.3105,-1.3133,-1.3153,-1.3173,-1.3189,-1.3209,-1.3221,-1.324,-1.3256,-1.3271,-1.3287,-1.3304,-1.3313,-1.3321,-1.3329,-1.3347,-1.335,-1.3347,-1.3367,-1.3368,-1.3361,-1.3354,-1.3348,-1.3348,-1.3358,-1.3358,-1.3359,0,-1.3109,-1.3129,-1.315,-1.3178,-1.3186,-1.3197,-1.3219,-1.3233,-1.3255,-1.3266,-1.328,-1.3295,-1.3311,-1.3316,-1.3337,-1.3335,-1.3344,-1.3354,-1.3355,-1.3357,-1.3363,-1.3356,-1.3349,-1.3349,-1.3359,-1.3359,-1.3359,0,-1.3094,-1.3125,-1.3142,-1.3153,-1.3186,-1.3193,-1.3207,-1.323,-1.3242,-1.326,-1.3268,-1.3289,-1.3299,-1.3314,-1.3334,-1.3336,-1.3353,-1.336,-1.3362,-1.3361,-1.3364,-1.3364,-1.3358,-1.3371,-1.3371,-1.3371,-1.3371,0,-1.3092,-1.3104,-1.3136,-1.3146,-1.316,-1.3183,-1.3196,-1.3212,-1.3231,-1.3245,-1.3263,-1.3275,-1.33,-1.3314,-1.333,-1.3345,-1.3349,-1.3358,-1.3362,-1.3356,-1.3355,-1.3363,-1.3363,-1.3371,-1.3371,-1.3371,-1.3371,0,-1.3077,-1.3099,-1.3119,-1.3148,-1.3156,-1.3165,-1.319,-1.3201,-1.3217,-1.3234,-1.3239,-1.3264,-1.3283,-1.3304,-1.3328,-1.3339,-1.3353,-1.3358,-1.3345,-1.3348,-1.3348,-1.3348,-1.3347,-1.3347,-1.3359,-1.3359,-1.3359,0,-1.3074,-1.3084,-1.3115,-1.3126,-1.3139,-1.3156,-1.3168,-1.3191,-1.3203,-1.3229,-1.3236,-1.3256,-1.3273,-1.3301,-1.3321,-1.334,-1.3347,-1.3345,-1.3349,-1.3344,-1.3346,-1.3345,-1.3346,-1.3343,-1.3343,-1.3343,-1.3343,0,-1.3067,-1.3077,-1.3095,-1.3116,-1.3131,-1.3149,-1.3167,-1.3175,-1.3201,-1.3213,-1.3233,-1.3246,-1.3272,-1.3291,-1.3312,-1.3326,-1.3339,-1.3341,-1.3343,-1.3337,-1.3329,-1.3333,-1.3342,-1.3341,-1.3341,-1.3341,-1.3342,-1.3342,-1.3058,-1.3067,-1.3091,-1.311,-1.3126,-1.3143,-1.3154,-1.3172,-1.3189,-1.3212,-1.3224,-1.3243,-1.3265,-1.3295,-1.3308,-1.3323,-1.3327,-1.3329,-1.333,-1.333,-1.3328,-1.3327,-1.3327,-1.3327,-1.3327,-1.3327,-1.3327,0,-1.3051,-1.3067,-1.3084,-1.311,-1.3125,-1.3136,-1.3157,-1.3169,-1.3185,-1.3204,-1.3221,-1.3243,-1.3262,-1.3283,-1.3303,-1.3311,-1.3317,-1.3315,-1.3315,-1.3318,-1.3323,-1.332,-1.331,-1.331,-1.331,-1.331,-1.331,-1.331,-1.3049,-1.3066,-1.3079,-1.3105,-1.3121,-1.314,-1.3151,-1.3166,-1.3182,-1.3205,-1.3221,-1.3236,-1.3256,-1.3277,-1.3295,-1.3301,-1.3307,-1.3303,-1.3311,-1.3316,-1.3317,-1.3319,-1.3316,-1.3305,-1.3305,-1.3304,-1.3304,-1.3304]}]]